Time,TemperatureF,DewpointF,PressureIn,WindDirection,WindDirectionDegrees,WindSpeedMPH,WindSpeedGustMPH,Humidity,HourlyPrecipIn,Conditions,Clouds,dailyrainin,SoftwareType,DateUTC
2013-07-16 00:04:00,63.2,22.6,24.80,SW,233,13.0,-999.0,21,-99.99,,,-99.99,dwt +perl,2013-07-16 07:04:00,
2013-07-16 00:09:00,63.4,22.8,24.80,SW,230,10.0,-999.0,21,-99.99,,,-99.99,dwt +perl,2013-07-16 07:09:00,
2013-07-16 00:14:00,63.2,22.6,24.80,SW,234,9.0,-999.0,21,-99.99,,,-99.99,dwt +perl,2013-07-16 07:14:00,
2013-07-16 00:19:00,62.7,22.2,24.80,SW,231,10.0,-999.0,21,-99.99,,,-99.99,dwt +perl,2013-07-16 07:19:00,
2013-07-16 00:24:00,63.3,20.4,24.80,SW,235,11.0,-999.0,19,-99.99,,,-99.99,dwt +perl,2013-07-16 07:24:00,
2013-07-16 00:29:00,63.8,20.8,24.80,WSW,241,11.0,-999.0,19,-99.99,,,-99.99,dwt +perl,2013-07-16 07:29:00,
2013-07-16 00:34:00,64.2,18.5,24.80,WSW,242,9.0,-999.0,17,-99.99,,,-99.99,dwt +perl,2013-07-16 07:34:00,
2013-07-16 00:39:00,64.3,18.6,24.80,WSW,241,11.0,-999.0,17,-99.99,,,-99.99,dwt +perl,2013-07-16 07:39:00,
2013-07-16 00:44:00,64.4,18.6,24.80,WSW,246,10.0,-999.0,17,-99.99,,,-99.99,dwt +perl,2013-07-16 07:44:00,
2013-07-16 00:49:00,64.1,18.4,24.80,WSW,247,10.0,-999.0,17,-99.99,,,-99.99,dwt +perl,2013-07-16 07:49:00,
2013-07-16 00:54:00,64.3,18.6,24.80,WSW,250,7.0,-999.0,17,-99.99,,,-99.99,dwt +perl,2013-07-16 07:54:00,
2013-07-16 00:59:00,64.3,18.6,24.80,WSW,247,11.0,-999.0,17,-99.99,,,-99.99,dwt +perl,2013-07-16 07:59:00,
2013-07-16 01:04:00,64.2,19.8,24.80,WSW,257,7.0,-999.0,18,-99.99,,,-99.99,dwt +perl,2013-07-16 08:04:00,
2013-07-16 01:09:00,64.0,18.3,24.80,WSW,253,6.0,-999.0,17,-99.99,,,-99.99,dwt +perl,2013-07-16 08:09:00,
2013-07-16 01:14:00,64.1,18.4,24.81,WSW,244,9.0,-999.0,17,-99.99,,,-99.99,dwt +perl,2013-07-16 08:14:00,
2013-07-16 01:19:00,64.3,18.6,24.80,WSW,243,7.0,-999.0,17,-99.99,,,-99.99,dwt +perl,2013-07-16 08:19:00,
2013-07-16 01:24:00,64.4,18.6,24.80,WSW,239,11.0,-999.0,17,-99.99,,,-99.99,dwt +perl,2013-07-16 08:24:00,
2013-07-16 01:29:00,64.3,18.6,24.80,WSW,243,10.0,-999.0,17,-99.99,,,-99.99,dwt +perl,2013-07-16 08:29:00,
2013-07-16 01:34:00,64.2,19.8,24.80,WSW,238,10.0,-999.0,18,-99.99,,,-99.99,dwt +perl,2013-07-16 08:34:00,
2013-07-16 01:39:00,64.2,19.8,24.80,SW,236,12.0,-999.0,18,-99.99,,,-99.99,dwt +perl,2013-07-16 08:39:00,
2013-07-16 01:44:00,64.0,19.6,24.80,WSW,237,12.0,-999.0,18,-99.99,,,-99.99,dwt +perl,2013-07-16 08:44:00,
2013-07-16 01:49:00,64.0,19.6,24.80,WSW,239,13.0,-999.0,18,-99.99,,,-99.99,dwt +perl,2013-07-16 08:49:00,
2013-07-16 01:54:00,63.9,19.6,24.80,WSW,239,10.0,-999.0,18,-99.99,,,-99.99,dwt +perl,2013-07-16 08:54:00,
2013-07-16 02:04:00,63.8,19.5,24.80,WSW,237,15.0,-999.0,18,-99.99,,,-99.99,dwt +perl,2013-07-16 09:04:00,
2013-07-16 02:09:00,64.3,19.9,24.80,SW,233,10.0,-999.0,18,-99.99,,,-99.99,dwt +perl,2013-07-16 09:09:00,
2013-07-16 02:14:00,64.1,19.7,24.80,WSW,237,9.0,-999.0,18,-99.99,,,-99.99,dwt +perl,2013-07-16 09:14:00,
2013-07-16 02:19:00,64.2,21.1,24.80,SW,230,10.0,-999.0,19,-99.99,,,-99.99,dwt +perl,2013-07-16 09:19:00,
2013-07-16 02:24:00,64.0,19.6,24.80,WSW,241,12.0,-999.0,18,-99.99,,,-99.99,dwt +perl,2013-07-16 09:24:00,
2013-07-16 02:29:00,63.8,19.5,24.80,WSW,241,9.0,-999.0,18,-99.99,,,-99.99,dwt +perl,2013-07-16 09:29:00,
2013-07-16 02:34:00,64.0,19.6,24.80,SW,230,10.0,-999.0,18,-99.99,,,-99.99,dwt +perl,2013-07-16 09:34:00,
2013-07-16 02:39:00,64.2,19.8,24.80,SW,232,6.0,-999.0,18,-99.99,,,-99.99,dwt +perl,2013-07-16 09:39:00,
2013-07-16 02:44:00,64.1,21.0,24.81,SW,232,4.0,-999.0,19,-99.99,,,-99.99,dwt +perl,2013-07-16 09:44:00,
2013-07-16 02:49:00,64.0,20.9,24.80,SW,228,8.0,-999.0,19,-99.99,,,-99.99,dwt +perl,2013-07-16 09:49:00,
2013-07-16 02:54:00,63.9,19.6,24.80,SW,235,8.0,-999.0,18,-99.99,,,-99.99,dwt +perl,2013-07-16 09:54:00,
2013-07-16 02:59:00,63.8,19.5,24.80,SW,229,3.0,-999.0,18,-99.99,,,-99.99,dwt +perl,2013-07-16 09:59:00,
2013-07-16 03:04:00,63.8,19.5,24.80,SW,234,6.0,-999.0,18,-99.99,,,-99.99,dwt +perl,2013-07-16 10:04:00,
2013-07-16 03:09:00,63.7,19.4,24.80,SW,232,5.0,-999.0,18,-99.99,,,-99.99,dwt +perl,2013-07-16 10:09:00,
2013-07-16 03:14:00,63.7,19.4,24.80,SW,227,8.0,-999.0,18,-99.99,,,-99.99,dwt +perl,2013-07-16 10:14:00,
2013-07-16 03:19:00,63.8,16.8,24.80,SW,236,9.0,-999.0,16,-99.99,,,-99.99,dwt +perl,2013-07-16 10:19:00,
2013-07-16 03:29:00,63.7,18.1,24.80,SW,236,10.0,-999.0,17,-99.99,,,-99.99,dwt +perl,2013-07-16 10:29:00,
2013-07-16 03:39:00,63.3,19.1,24.80,SW,220,14.0,-999.0,18,-99.99,,,-99.99,dwt +perl,2013-07-16 10:39:00,
2013-07-16 03:44:00,63.5,17.9,24.80,WSW,242,11.0,-999.0,17,-99.99,,,-99.99,dwt +perl,2013-07-16 10:44:00,
2013-07-16 03:49:00,63.3,17.8,24.80,SW,224,10.0,-999.0,17,-99.99,,,-99.99,dwt +perl,2013-07-16 10:49:00,
2013-07-16 03:54:00,63.2,16.3,24.80,SW,229,9.0,-999.0,16,-99.99,,,-99.99,dwt +perl,2013-07-16 10:54:00,
2013-07-16 03:59:00,63.6,16.6,24.80,WSW,241,9.0,-999.0,16,-99.99,,,-99.99,dwt +perl,2013-07-16 10:59:00,
2013-07-16 04:04:00,63.7,6.1,24.80,WSW,237,11.0,-999.0,10,-99.99,,,-99.99,dwt +perl,2013-07-16 11:04:00,
2013-07-16 04:09:00,63.8,8.3,24.80,WSW,253,9.0,-999.0,11,-99.99,,,-99.99,dwt +perl,2013-07-16 11:09:00,
2013-07-16 04:14:00,63.7,8.2,24.80,WSW,242,9.0,-999.0,11,-99.99,,,-99.99,dwt +perl,2013-07-16 11:14:00,
2013-07-16 04:19:00,63.6,13.6,24.80,WSW,256,9.0,-999.0,14,-99.99,,,-99.99,dwt +perl,2013-07-16 11:19:00,
2013-07-16 04:24:00,63.6,13.6,24.80,WSW,243,11.0,-999.0,14,-99.99,,,-99.99,dwt +perl,2013-07-16 11:24:00,
2013-07-16 04:29:00,63.9,15.4,24.80,SW,231,13.0,-999.0,15,-99.99,,,-99.99,dwt +perl,2013-07-16 11:29:00,
2013-07-16 04:34:00,63.9,13.8,24.80,SW,235,12.0,-999.0,14,-99.99,,,-99.99,dwt +perl,2013-07-16 11:34:00,
2013-07-16 04:39:00,64.0,16.9,24.80,WSW,245,9.0,-999.0,16,-99.99,,,-99.99,dwt +perl,2013-07-16 11:39:00,
2013-07-16 04:44:00,64.0,16.9,24.80,WSW,256,6.0,-999.0,16,-99.99,,,-99.99,dwt +perl,2013-07-16 11:44:00,
2013-07-16 04:49:00,64.0,13.9,24.80,WSW,237,9.0,-999.0,14,-99.99,,,-99.99,dwt +perl,2013-07-16 11:49:00,
2013-07-16 04:54:00,63.8,13.7,24.80,West,267,8.0,-999.0,14,-99.99,,,-99.99,dwt +perl,2013-07-16 11:54:00,
2013-07-16 04:59:00,63.8,13.7,24.80,WNW,282,5.0,-999.0,14,-99.99,,,-99.99,dwt +perl,2013-07-16 11:59:00,
2013-07-16 05:04:00,63.5,11.8,24.80,West,281,4.0,-999.0,13,-99.99,,,-99.99,dwt +perl,2013-07-16 12:04:00,
2013-07-16 05:09:00,63.1,7.8,24.80,West,276,5.0,-999.0,11,-99.99,,,-99.99,dwt +perl,2013-07-16 12:09:00,
2013-07-16 05:14:00,62.9,5.5,24.81,West,266,8.0,-999.0,10,-99.99,,,-99.99,dwt +perl,2013-07-16 12:14:00,
2013-07-16 05:19:00,62.7,3.1,24.81,WSW,238,7.0,-999.0,9,-99.99,,,-99.99,dwt +perl,2013-07-16 12:19:00,
2013-07-16 05:24:00,62.7,0.6,24.81,West,265,4.0,-999.0,8,-99.99,,,-99.99,dwt +perl,2013-07-16 12:24:00,
2013-07-16 05:29:00,62.7,-2.2,24.81,WSW,253,5.0,-999.0,7,-99.99,,,-99.99,dwt +perl,2013-07-16 12:29:00,
2013-07-16 05:34:00,62.5,0.4,24.81,West,277,8.0,-999.0,8,-99.99,,,-99.99,dwt +perl,2013-07-16 12:34:00,
2013-07-16 05:39:00,62.5,-2.4,24.81,WSW,251,3.0,-999.0,7,-99.99,,,-99.99,dwt +perl,2013-07-16 12:39:00,
2013-07-16 05:44:00,62.5,-5.6,24.81,West,279,6.0,-999.0,6,-99.99,,,-99.99,dwt +perl,2013-07-16 12:44:00,
2013-07-16 05:49:00,62.6,-2.3,24.81,West,280,4.0,-999.0,7,-99.99,,,-99.99,dwt +perl,2013-07-16 12:49:00,
2013-07-16 05:54:00,62.4,0.3,24.82,West,259,7.0,-999.0,8,-99.99,,,-99.99,dwt +perl,2013-07-16 12:54:00,
2013-07-16 06:04:00,62.2,0.2,24.82,West,263,5.0,-999.0,8,-99.99,,,-99.99,dwt +perl,2013-07-16 13:04:00,
2013-07-16 06:09:00,61.9,4.8,24.82,WSW,243,4.0,-999.0,10,-99.99,,,-99.99,dwt +perl,2013-07-16 13:09:00,
2013-07-16 06:14:00,61.6,4.5,24.82,WSW,241,3.0,-999.0,10,-99.99,,,-99.99,dwt +perl,2013-07-16 13:14:00,
2013-07-16 06:19:00,61.6,6.6,24.82,SW,231,5.0,-999.0,11,-99.99,,,-99.99,dwt +perl,2013-07-16 13:19:00,
2013-07-16 06:24:00,61.8,10.4,24.82,WSW,239,8.0,-999.0,13,-99.99,,,-99.99,dwt +perl,2013-07-16 13:24:00,
2013-07-16 06:29:00,62.0,10.6,24.82,SW,228,7.0,-999.0,13,-99.99,,,-99.99,dwt +perl,2013-07-16 13:29:00,
2013-07-16 06:34:00,62.3,9.1,24.82,SW,233,5.0,-999.0,12,-99.99,,,-99.99,dwt +perl,2013-07-16 13:34:00,
2013-07-16 06:44:00,62.7,7.4,24.82,SW,220,7.0,-999.0,11,-99.99,,,-99.99,dwt +perl,2013-07-16 13:44:00,
2013-07-16 06:49:00,62.6,9.3,24.82,SW,218,6.0,-999.0,12,-99.99,,,-99.99,dwt +perl,2013-07-16 13:49:00,
2013-07-16 06:59:00,63.1,3.4,24.83,SSW,210,7.0,-999.0,9,-99.99,,,-99.99,dwt +perl,2013-07-16 13:59:00,
2013-07-16 07:04:00,63.2,0.9,24.83,SW,216,10.0,-999.0,8,-99.99,,,-99.99,dwt +perl,2013-07-16 14:04:00,
2013-07-16 07:09:00,63.2,0.9,24.83,SW,224,8.0,-999.0,8,-99.99,,,-99.99,dwt +perl,2013-07-16 14:09:00,
2013-07-16 07:29:00,63.5,-1.7,24.84,SSW,208,7.0,-999.0,7,-99.99,,,-99.99,dwt +perl,2013-07-16 14:29:00,
2013-07-16 07:34:00,63.6,1.2,24.84,South,181,0.0,-999.0,8,-99.99,,,-99.99,dwt +perl,2013-07-16 14:34:00,
2013-07-16 07:39:00,64.0,1.5,24.84,SSW,206,1.0,-999.0,8,-99.99,,,-99.99,dwt +perl,2013-07-16 14:39:00,
2013-07-16 07:49:00,64.1,-4.4,24.84,SW,215,10.0,-999.0,6,-99.99,,,-99.99,dwt +perl,2013-07-16 14:49:00,
2013-07-16 07:54:00,64.0,-1.3,24.84,SSW,200,6.0,-999.0,7,-99.99,,,-99.99,dwt +perl,2013-07-16 14:54:00,
2013-07-16 07:59:00,64.0,-1.3,24.85,SW,227,9.0,-999.0,7,-99.99,,,-99.99,dwt +perl,2013-07-16 14:59:00,
2013-07-16 08:09:00,63.9,-1.4,24.85,SW,214,8.0,-999.0,7,-99.99,,,-99.99,dwt +perl,2013-07-16 15:09:00,
2013-07-16 08:14:00,64.0,-1.3,24.85,SW,222,6.0,-999.0,7,-99.99,,,-99.99,dwt +perl,2013-07-16 15:14:00,
2013-07-16 08:19:00,64.1,-1.2,24.85,SSW,209,7.0,-999.0,7,-99.99,,,-99.99,dwt +perl,2013-07-16 15:19:00,
2013-07-16 08:24:00,64.3,6.6,24.85,SSW,207,8.0,-999.0,10,-99.99,,,-99.99,dwt +perl,2013-07-16 15:24:00,
2013-07-16 08:29:00,64.3,-1.1,24.85,SW,214,10.0,-999.0,7,-99.99,,,-99.99,dwt +perl,2013-07-16 15:29:00,
2013-07-16 08:44:00,64.7,4.6,24.86,SSW,210,5.0,-999.0,9,-99.99,,,-99.99,dwt +perl,2013-07-16 15:44:00,
2013-07-16 08:49:00,64.6,4.5,24.85,SW,218,6.0,-999.0,9,-99.99,,,-99.99,dwt +perl,2013-07-16 15:49:00,
2013-07-16 08:59:00,64.8,2.1,24.86,SW,219,10.0,-999.0,8,-99.99,,,-99.99,dwt +perl,2013-07-16 15:59:00,
2013-07-16 09:09:00,65.4,9.5,24.86,SSW,212,9.0,-999.0,11,-99.99,,,-99.99,dwt +perl,2013-07-16 16:09:00,
2013-07-16 09:14:00,65.2,5.0,24.86,SSW,208,9.0,-999.0,9,-99.99,,,-99.99,dwt +perl,2013-07-16 16:14:00,
2013-07-16 09:19:00,65.5,7.5,24.86,SW,218,4.0,-999.0,10,-99.99,,,-99.99,dwt +perl,2013-07-16 16:19:00,
2013-07-16 09:24:00,65.4,5.1,24.86,SW,221,10.0,-999.0,9,-99.99,,,-99.99,dwt +perl,2013-07-16 16:24:00,
2013-07-16 09:29:00,65.9,15.4,24.86,SW,216,3.0,-999.0,14,-99.99,,,-99.99,dwt +perl,2013-07-16 16:29:00,
2013-07-16 09:34:00,65.7,11.7,24.86,SW,219,6.0,-999.0,12,-99.99,,,-99.99,dwt +perl,2013-07-16 16:34:00,
2013-07-16 09:44:00,66.3,10.2,24.86,SW,216,6.0,-999.0,11,-99.99,,,-99.99,dwt +perl,2013-07-16 16:44:00,
2013-07-16 09:49:00,66.1,12.0,24.86,SW,222,4.0,-999.0,12,-99.99,,,-99.99,dwt +perl,2013-07-16 16:49:00,
2013-07-16 10:04:00,66.6,6.0,24.86,SW,214,3.0,-999.0,9,-99.99,,,-99.99,dwt +perl,2013-07-16 17:04:00,
2013-07-16 10:09:00,66.7,8.4,24.86,SW,216,7.0,-999.0,10,-99.99,,,-99.99,dwt +perl,2013-07-16 17:09:00,
2013-07-16 10:14:00,67.1,14.6,24.87,SW,222,5.0,-999.0,13,-99.99,,,-99.99,dwt +perl,2013-07-16 17:14:00,
2013-07-16 10:19:00,67.2,12.9,24.87,SSW,211,11.0,-999.0,12,-99.99,,,-99.99,dwt +perl,2013-07-16 17:19:00,
2013-07-16 10:24:00,67.1,14.6,24.87,SW,214,8.0,-999.0,13,-99.99,,,-99.99,dwt +perl,2013-07-16 17:24:00,
2013-07-16 10:29:00,67.2,14.7,24.87,WSW,239,7.0,-999.0,13,-99.99,,,-99.99,dwt +perl,2013-07-16 17:29:00,
2013-07-16 10:34:00,67.5,14.9,24.87,SW,220,10.0,-999.0,13,-99.99,,,-99.99,dwt +perl,2013-07-16 17:34:00,
2013-07-16 10:39:00,67.6,13.2,24.88,SW,224,7.0,-999.0,12,-99.99,,,-99.99,dwt +perl,2013-07-16 17:39:00,
2013-07-16 10:44:00,67.7,15.1,24.87,SW,225,6.0,-999.0,13,-99.99,,,-99.99,dwt +perl,2013-07-16 17:44:00,
2013-07-16 10:49:00,67.6,15.0,24.87,WSW,245,3.0,-999.0,13,-99.99,,,-99.99,dwt +perl,2013-07-16 17:49:00,
2013-07-16 10:54:00,67.9,17.0,24.88,SW,236,2.0,-999.0,14,-99.99,,,-99.99,dwt +perl,2013-07-16 17:54:00,
2013-07-16 10:59:00,68.3,17.3,24.88,SSW,212,8.0,-999.0,14,-99.99,,,-99.99,dwt +perl,2013-07-16 17:59:00,
2013-07-16 11:09:00,68.1,15.4,24.88,SW,226,1.0,-999.0,13,-99.99,,,-99.99,dwt +perl,2013-07-16 18:09:00,
2013-07-16 11:14:00,68.2,18.8,24.88,SSW,201,7.0,-999.0,15,-99.99,,,-99.99,dwt +perl,2013-07-16 18:14:00,
2013-07-16 11:19:00,68.6,20.6,24.88,SSW,201,5.0,-999.0,16,-99.99,,,-99.99,dwt +perl,2013-07-16 18:19:00,
2013-07-16 11:24:00,68.5,20.5,24.88,SW,226,7.0,-999.0,16,-99.99,,,-99.99,dwt +perl,2013-07-16 18:24:00,
2013-07-16 11:29:00,69.3,24.0,24.88,SW,224,6.0,-999.0,18,-99.99,,,-99.99,dwt +perl,2013-07-16 18:29:00,
2013-07-16 11:34:00,69.7,18.4,24.88,SSW,197,5.0,-999.0,14,-99.99,,,-99.99,dwt +perl,2013-07-16 18:34:00,
2013-07-16 11:39:00,69.8,23.0,24.88,SW,216,9.0,-999.0,17,-99.99,,,-99.99,dwt +perl,2013-07-16 18:39:00,
2013-07-16 11:44:00,70.3,18.9,24.89,SW,218,8.0,-999.0,14,-99.99,,,-99.99,dwt +perl,2013-07-16 18:44:00,
2013-07-16 11:54:00,70.4,23.5,24.89,SW,223,5.0,-999.0,17,-99.99,,,-99.99,dwt +perl,2013-07-16 18:54:00,
2013-07-16 12:04:00,70.9,25.3,24.89,WSW,248,4.0,-999.0,18,-99.99,,,-99.99,dwt +perl,2013-07-16 19:04:00,
2013-07-16 12:09:00,71.2,24.1,24.89,SSW,212,5.0,-999.0,17,-99.99,,,-99.99,dwt +perl,2013-07-16 19:09:00,
2013-07-16 12:14:00,70.5,23.6,24.89,WSW,238,0.0,-999.0,17,-99.99,,,-99.99,dwt +perl,2013-07-16 19:14:00,
2013-07-16 12:24:00,70.6,23.7,24.89,WSW,239,4.0,-999.0,17,-99.99,,,-99.99,dwt +perl,2013-07-16 19:24:00,
2013-07-16 12:29:00,70.8,28.9,24.89,WSW,243,6.0,-999.0,21,-99.99,,,-99.99,dwt +perl,2013-07-16 19:29:00,
2013-07-16 12:39:00,70.6,25.0,24.89,WSW,241,4.0,-999.0,18,-99.99,,,-99.99,dwt +perl,2013-07-16 19:39:00,
2013-07-16 12:44:00,70.9,26.6,24.89,SW,235,7.0,-999.0,19,-99.99,,,-99.99,dwt +perl,2013-07-16 19:44:00,
2013-07-16 12:54:00,71.7,42.6,24.90,SSW,211,0.0,-999.0,35,-99.99,,,-99.99,dwt +perl,2013-07-16 19:54:00,
2013-07-16 12:59:00,72.1,38.9,24.89,SSW,208,2.0,-999.0,30,-99.99,,,-99.99,dwt +perl,2013-07-16 19:59:00,
2013-07-16 13:04:00,72.1,40.6,24.89,NNE,33,2.0,-999.0,32,-99.99,,,-99.99,dwt +perl,2013-07-16 20:04:00,
2013-07-16 13:09:00,71.9,44.2,24.89,NNE,32,0.0,-999.0,37,-99.99,,,-99.99,dwt +perl,2013-07-16 20:09:00,
2013-07-16 13:14:00,71.8,44.8,24.89,NE,52,0.0,-999.0,38,-99.99,,,-99.99,dwt +perl,2013-07-16 20:14:00,
2013-07-16 13:24:00,72.2,45.2,24.89,ENE,58,3.0,-999.0,38,-99.99,,,-99.99,dwt +perl,2013-07-16 20:24:00,
2013-07-16 13:29:00,71.9,44.9,24.89,NE,56,0.0,-999.0,38,-99.99,,,-99.99,dwt +perl,2013-07-16 20:29:00,
2013-07-16 13:34:00,71.7,45.4,24.89,North,354,1.0,-999.0,39,-99.99,,,-99.99,dwt +perl,2013-07-16 20:34:00,
2013-07-16 13:39:00,72.2,43.8,24.89,North,10,0.0,-999.0,36,-99.99,,,-99.99,dwt +perl,2013-07-16 20:39:00,
2013-07-16 13:44:00,72.8,41.2,24.89,South,187,0.0,-999.0,32,-99.99,,,-99.99,dwt +perl,2013-07-16 20:44:00,
2013-07-16 13:54:00,72.4,43.9,24.89,South,175,0.0,-999.0,36,-99.99,,,-99.99,dwt +perl,2013-07-16 20:54:00,
2013-07-16 13:59:00,72.3,40.0,24.89,SSW,197,0.0,-999.0,31,-99.99,,,-99.99,dwt +perl,2013-07-16 20:59:00,
2013-07-16 14:09:00,72.5,45.4,24.89,WNW,303,0.0,-999.0,38,-99.99,,,-99.99,dwt +perl,2013-07-16 21:09:00,
2013-07-16 14:19:00,72.4,44.6,24.89,ESE,104,1.0,-999.0,37,-99.99,,,-99.99,dwt +perl,2013-07-16 21:19:00,
2013-07-16 14:24:00,72.2,45.8,24.89,NNW,335,0.0,-999.0,39,-99.99,,,-99.99,dwt +perl,2013-07-16 21:24:00,
2013-07-16 14:39:00,72.6,42.6,24.89,ENE,77,0.0,-999.0,34,-99.99,,,-99.99,dwt +perl,2013-07-16 21:39:00,
2013-07-16 14:49:00,73.3,44.7,24.89,East,93,0.0,-999.0,36,-99.99,,,-99.99,dwt +perl,2013-07-16 21:49:00,
2013-07-16 14:54:00,72.8,43.5,24.89,SSW,208,0.0,-999.0,35,-99.99,,,-99.99,dwt +perl,2013-07-16 21:54:00,
2013-07-16 14:59:00,73.3,44.0,24.89,SSW,204,0.0,-999.0,35,-99.99,,,-99.99,dwt +perl,2013-07-16 21:59:00,
2013-07-16 15:04:00,73.6,45.0,24.89,South,182,3.0,-999.0,36,-99.99,,,-99.99,dwt +perl,2013-07-16 22:04:00,
2013-07-16 15:09:00,73.7,45.8,24.89,South,182,0.0,-999.0,37,-99.99,,,-99.99,dwt +perl,2013-07-16 22:09:00,
2013-07-16 15:14:00,74.0,44.6,24.89,SSE,166,3.0,-999.0,35,-99.99,,,-99.99,dwt +perl,2013-07-16 22:14:00,
2013-07-16 15:19:00,73.9,44.5,24.89,SSE,161,1.0,-999.0,35,-99.99,,,-99.99,dwt +perl,2013-07-16 22:19:00,
2013-07-16 15:24:00,73.7,45.1,24.89,SSE,158,2.0,-999.0,36,-99.99,,,-99.99,dwt +perl,2013-07-16 22:24:00,
2013-07-16 15:29:00,73.3,44.0,24.89,SSE,158,0.0,-999.0,35,-99.99,,,-99.99,dwt +perl,2013-07-16 22:29:00,
2013-07-16 15:34:00,73.4,44.8,24.89,SSE,158,1.0,-999.0,36,-99.99,,,-99.99,dwt +perl,2013-07-16 22:34:00,
2013-07-16 15:39:00,73.3,45.4,24.89,South,191,0.0,-999.0,37,-99.99,,,-99.99,dwt +perl,2013-07-16 22:39:00,
2013-07-16 15:49:00,74.3,44.1,24.89,South,191,0.0,-999.0,34,-99.99,,,-99.99,dwt +perl,2013-07-16 22:49:00,
2013-07-16 15:54:00,73.7,36.7,24.89,South,191,0.0,-999.0,26,-99.99,,,-99.99,dwt +perl,2013-07-16 22:54:00,
2013-07-16 15:59:00,75.0,40.6,24.89,South,191,0.0,-999.0,29,-99.99,,,-99.99,dwt +perl,2013-07-16 22:59:00,
2013-07-16 16:04:00,75.0,42.3,24.89,South,191,3.0,-999.0,31,-99.99,,,-99.99,dwt +perl,2013-07-16 23:04:00,
2013-07-16 16:09:00,75.1,44.8,24.89,South,191,0.0,-999.0,34,-99.99,,,-99.99,dwt +perl,2013-07-16 23:09:00,
2013-07-16 16:14:00,74.8,46.0,24.89,South,191,1.0,-999.0,36,-99.99,,,-99.99,dwt +perl,2013-07-16 23:14:00,
2013-07-16 16:24:00,74.7,46.7,24.89,South,191,1.0,-999.0,37,-99.99,,,-99.99,dwt +perl,2013-07-16 23:24:00,
2013-07-16 16:34:00,74.0,46.8,24.89,South,191,1.0,-999.0,38,-99.99,,,-99.99,dwt +perl,2013-07-16 23:34:00,
2013-07-16 16:39:00,73.4,46.2,24.89,South,187,0.0,-999.0,38,-99.99,,,-99.99,dwt +perl,2013-07-16 23:39:00,
2013-07-16 16:49:00,73.2,46.0,24.89,South,177,1.0,-999.0,38,-99.99,,,-99.99,dwt +perl,2013-07-16 23:49:00,
2013-07-16 16:54:00,73.6,47.1,24.89,South,177,1.0,-999.0,39,-99.99,,,-99.99,dwt +perl,2013-07-16 23:54:00,
2013-07-16 16:59:00,73.4,46.2,24.89,South,177,0.0,-999.0,38,-99.99,,,-99.99,dwt +perl,2013-07-16 23:59:00,
2013-07-16 17:04:00,73.4,48.2,24.89,South,177,2.0,-999.0,41,-99.99,,,-99.99,dwt +perl,2013-07-17 00:04:00,
2013-07-16 17:09:00,73.3,45.4,24.88,South,177,0.0,-999.0,37,-99.99,,,-99.99,dwt +perl,2013-07-17 00:09:00,
2013-07-16 17:14:00,73.5,46.3,24.88,South,177,2.0,-999.0,38,-99.99,,,-99.99,dwt +perl,2013-07-17 00:14:00,
2013-07-16 17:19:00,73.1,44.5,24.88,South,177,0.0,-999.0,36,-99.99,,,-99.99,dwt +perl,2013-07-17 00:19:00,
2013-07-16 17:24:00,73.2,46.0,24.88,South,177,0.0,-999.0,38,-99.99,,,-99.99,dwt +perl,2013-07-17 00:24:00,
2013-07-16 17:29:00,73.2,47.4,24.88,South,177,1.0,-999.0,40,-99.99,,,-99.99,dwt +perl,2013-07-17 00:29:00,
2013-07-16 17:34:00,73.3,46.1,24.88,South,177,0.0,-999.0,38,-99.99,,,-99.99,dwt +perl,2013-07-17 00:34:00,
2013-07-16 17:39:00,73.1,47.3,24.88,South,177,2.0,-999.0,40,-99.99,,,-99.99,dwt +perl,2013-07-17 00:39:00,
2013-07-16 17:49:00,72.2,42.3,24.88,South,180,4.0,-999.0,34,-99.99,,,-99.99,dwt +perl,2013-07-17 00:49:00,
2013-07-16 17:54:00,71.3,43.7,24.88,SSW,207,0.0,-999.0,37,-99.99,,,-99.99,dwt +perl,2013-07-17 00:54:00,
2013-07-16 17:59:00,71.5,45.2,24.88,SSW,207,0.0,-999.0,39,-99.99,,,-99.99,dwt +perl,2013-07-17 00:59:00,
2013-07-16 18:04:00,71.9,46.2,24.88,SSW,207,0.0,-999.0,40,-99.99,,,-99.99,dwt +perl,2013-07-17 01:04:00,
2013-07-16 18:09:00,71.9,46.9,24.88,SSW,207,3.0,-999.0,41,-99.99,,,-99.99,dwt +perl,2013-07-17 01:09:00,
2013-07-16 18:14:00,72.2,42.3,24.88,SSW,210,4.0,-999.0,34,-99.99,,,-99.99,dwt +perl,2013-07-17 01:14:00,
2013-07-16 18:19:00,72.1,40.6,24.88,SSW,210,0.0,-999.0,32,-99.99,,,-99.99,dwt +perl,2013-07-17 01:19:00,
2013-07-16 18:24:00,71.9,40.4,24.88,SSW,210,3.0,-999.0,32,-99.99,,,-99.99,dwt +perl,2013-07-17 01:24:00,
2013-07-16 18:29:00,71.5,41.6,24.88,SSW,210,5.0,-999.0,34,-99.99,,,-99.99,dwt +perl,2013-07-17 01:29:00,
2013-07-16 18:39:00,69.9,41.0,24.88,SW,214,6.0,-999.0,35,-99.99,,,-99.99,dwt +perl,2013-07-17 01:39:00,
2013-07-16 18:44:00,70.3,39.0,24.88,SW,216,4.0,-999.0,32,-99.99,,,-99.99,dwt +perl,2013-07-17 01:44:00,
2013-07-16 18:49:00,69.4,41.3,24.89,SW,214,5.0,-999.0,36,-99.99,,,-99.99,dwt +perl,2013-07-17 01:49:00,
2013-07-16 18:59:00,69.3,39.0,24.89,SW,214,1.0,-999.0,33,-99.99,,,-99.99,dwt +perl,2013-07-17 01:59:00,
2013-07-16 19:04:00,69.4,39.0,24.89,SW,214,5.0,-999.0,33,-99.99,,,-99.99,dwt +perl,2013-07-17 02:04:00,
2013-07-16 19:09:00,69.0,39.5,24.89,SW,214,2.0,-999.0,34,-99.99,,,-99.99,dwt +perl,2013-07-17 02:09:00,
2013-07-16 19:14:00,68.6,39.1,24.89,SW,214,3.0,-999.0,34,-99.99,,,-99.99,dwt +perl,2013-07-17 02:14:00,
2013-07-16 19:19:00,68.2,36.4,24.89,SW,214,2.0,-999.0,31,-99.99,,,-99.99,dwt +perl,2013-07-17 02:19:00,
2013-07-16 19:29:00,67.5,36.6,24.89,SW,214,6.0,-999.0,32,-99.99,,,-99.99,dwt +perl,2013-07-17 02:29:00,
2013-07-16 19:34:00,68.0,36.2,24.89,SW,214,5.0,-999.0,31,-99.99,,,-99.99,dwt +perl,2013-07-17 02:34:00,
2013-07-16 19:44:00,66.3,30.4,24.90,SW,214,6.0,-999.0,26,-99.99,,,-99.99,dwt +perl,2013-07-17 02:44:00,
2013-07-16 19:49:00,66.5,34.1,24.89,SW,214,5.0,-999.0,30,-99.99,,,-99.99,dwt +perl,2013-07-17 02:49:00,
2013-07-16 19:59:00,66.4,30.5,24.90,SW,214,6.0,-999.0,26,-99.99,,,-99.99,dwt +perl,2013-07-17 02:59:00,
2013-07-16 20:04:00,66.2,28.3,24.90,SW,214,5.0,-999.0,24,-99.99,,,-99.99,dwt +perl,2013-07-17 03:04:00,
2013-07-16 20:09:00,66.1,23.9,24.90,SW,214,7.0,-999.0,20,-99.99,,,-99.99,dwt +perl,2013-07-17 03:09:00,